OneWeb SL0312

operational
NORAD ID: 49098 Int'l Des: 2021-075 Owner: ONEWEBN Country: UK Constellation: oneweb
LEOCIRCULARPOLARONEWEB_TYPE

OneWeb SL0312について

説明を読み込み中...

リアルタイム位置

3D地球を読み込み中...

次回通過

高度履歴

Altitude vs Time

uPlot chart will show altitude changes over time

軌道要素

1 49098U 21075Z 26061.19285016 .00000031 00000-0 47425-4 0 9992
2 49098 87.9138 27.1219 0002170 76.3851 283.7523 13.17649455219513
Epoch: Mar 2, 2026 • Age: 34 hours

現在のステータス

高度 1200.7 km
速度 7.26 km/s
衛星直下点 49.35°N, 113.49°W
打ち上げ日 Aug 21, 2021
運用期間 4.5 years
タイプ internet

技術仕様

分類 Payload
質量 148.00 kg
乾燥質量 140.00 kg
総質量 148.00 kg
長さ 1.30 m
直径 1.00 m
スパン 5.00 m
形状 Trapezoid+2 pan
製造者 ONEWUS
バスタイプ ARROW
フェーズステータス In Orbit
所有者/国 ONEWEBN/UK

大規模コンステレーション

Loading constellations...